{"data":{"norad_id":61020,"intl_designator":"2024-159K","name":"GEESAT-3 10","alt_names":[],"object_type":"PAYLOAD","status":"ACTIVE","operator":null,"country":"PRC","launch_date":"2024-09-05","launch_site_code":"TAISC","launch_vehicle":null,"mission":null,"orbit_class":"UNKNOWN","rcs_meters":null,"size_class":null,"mass_kg":null,"dimensions":null,"purposes":[],"wikipedia_slug":null,"has_3d_model":false,"image_url":null,"decayed_at":null,"tle_current":{"epoch":"2026-05-25T03:15:21.506976Z","epoch_age_seconds":63661,"freshness":"FRESH","line1":"1 61020U 24159K   26145.13566559  .00001196  00000+0  16857-3 0  9994","line2":"2 61020  49.9983 190.1385 0003817  14.6556 345.4492 14.84136252 93083","mean_motion":14.84136252,"eccentricity":0.0003817,"inclination_deg":49.9983,"raan_deg":190.1385,"arg_perigee_deg":14.6556,"mean_anomaly_deg":345.4492,"bstar":0.00016857,"rev_number":9308,"period_min":97.026132072408,"perigee_km":613.62855335971,"apogee_km":618.96810529011,"semimajor_km":6994.4353293249,"source":"CELESTRAK","updated_at":"2026-05-25T13:38:02.278605Z"}}}